Content
SEND FEEDBACK

Daily
Averages
Monthly
Summary
United States of America

AGANA, GUAM


Home > North America > United States > Guam
Elevation: 74 meters     Latitude: 13 29N     Longitude: 144 48E

WEATHER
 
SELECT A DAY
Number of Records: 215,541;   Date Range: 1/1/95 - 12/18/14
 
SHARE

PRINT THIS DATA

[ ← Previous Day ]
WEATHER ALMANAC - 30 APRIL, 2013
[ Next Day → ]
[ °F ]   °C
Weather ElementAverageHighLow
Temperature29.6 °C32 °C (10:40 am)26.7 °C (2:54 am)
Dewpoint23.7 °C24.4 °C (8:54 am)23 °C (10:01 am)
Humidity70.8 %82 % (1:54 am)59 % (10:40 am)
Barometer1011.5 hPa1012.9 hPa (9:42 am)1009.5 hPa (3:54 pm)
Wind Speed17.5 km/h27.8 km/h (10:01 am)
Wind Gust38.9 km/h (10:47 am)
Weather ElementAverage
Visibility16.1 km
Wind DirectionE (87.6 °)

Weather ElementTotal
Precipitation0.25 mm
Cooling Degree Days11.1 (Base 18.3)
Growing Degree Days19.4 (Base 10)
Averaged from 34 records on 30 April, 2013
WEATHER CONDITIONS BREAKOUT
WIND DIRECTION BREAKOUT
WEATHER BY HOUR - 30 APRIL, 2013
[ °F ]   °C
Local TimeTemperatureDewpointHumidityBarometerVisibilityWind DirectionWind SpeedGust SpeedPrecipitationEventsConditions
1:54 AM27.2 °C23.9 °C82 %1012.5 hPa16.1 kmENE (70°)9.3 km/hClear
2:54 AM26.7 °C23.3 °C81 %1011.9 hPa16.1 kmENE (70°)9.3 km/hClear
3:54 AM27.2 °C23.9 °C82 %1011.5 hPa16.1 kmENE (70°)9.3 km/hClear
4:54 AM27.2 °C23.9 °C82 %1011.5 hPa16.1 kmENE (60°)9.3 km/hClear
5:54 AM27.2 °C23.9 °C82 %1011.5 hPa16.1 kmENE (70°)9.3 km/hClear
6:54 AM28.3 °C23.9 °C77 %1011.9 hPa16.1 kmENE (70°)13 km/hPartly Cloudy
7:54 AM29.4 °C23.3 °C69 %1012.2 hPa16.1 kmENE (70°)24.1 km/hScattered Clouds
8:54 AM29.4 °C24.4 °C74 %1012.5 hPa16.1 kmEast (90°)22.2 km/h0 mmScattered Clouds
9:42 AM31 °C24 °C66 %1012.9 hPa16.1 kmEast (90°)18.5 km/h31.5 km/hMostly Cloudy
9:54 AM31.1 °C23.9 °C65 %1011.9 hPa16.1 kmEast (80°)25.9 km/h33.3 km/hMostly Cloudy
10:01 AM31 °C23 °C62 %1012.9 hPa16.1 kmENE (70°)27.8 km/h35.2 km/hMostly Cloudy
10:40 AM32 °C23 °C59 %1012.9 hPa16.1 kmEast (80°)25.9 km/h35.2 km/hMostly Cloudy
10:47 AM31 °C23 °C62 %1012.9 hPa16.1 kmESE (110°)22.2 km/h38.9 km/hScattered Clouds
10:54 AM31.1 °C23.3 °C63 %1011.9 hPa16.1 kmENE (70°)27.8 km/h35.2 km/hMostly Cloudy
11:06 AM31 °C23 °C62 %1012.5 hPa16.1 kmESE (120°)18.5 km/hMostly Cloudy
11:18 AM31 °C23 °C62 %1012.5 hPa16.1 kmESE (110°)22.2 km/h37 km/hMostly Cloudy
11:50 AM31 °C24 °C66 %1012.2 hPa16.1 kmESE (120°)18.5 km/h38.9 km/hMostly Cloudy
11:54 AM31.7 °C23.9 °C63 %1011.5 hPa16.1 kmEast (90°)25.9 km/h35.2 km/hScattered Clouds
12:54 PM31.1 °C23.3 °C63 %1011.2 hPa16.1 kmESE (120°)18.5 km/h31.5 km/hScattered Clouds
1:54 PM30 °C24.4 °C72 %1010.2 hPa16.1 kmESE (110°)14.8 km/h0.25 mmPartly Cloudy
2:09 PM29 °C24 °C74 %1010.8 hPa16.1 kmEast (80°)24.1 km/h35.2 km/hMostly Cloudy
2:18 PM29 °C24 °C74 %1010.8 hPa14.5 kmEast (90°)14.8 km/h0 mmRainLight Rain
2:54 PM30 °C23.9 °C70 %1010.2 hPa16.1 kmEast (90°)14.8 km/h31.5 km/h0 mmPartly Cloudy
3:09 PM30 °C24 °C70 %1010.8 hPa16.1 kmEast (80°)22.2 km/hMostly Cloudy
3:41 PM31 °C23 °C62 %1010.5 hPa16.1 kmEast (80°)16.7 km/h27.8 km/h0 mmScattered Clouds
3:54 PM30 °C23.3 °C67 %1009.5 hPa16.1 kmEast (90°)20.4 km/h0 mmScattered Clouds
4:54 PM30 °C23.3 °C67 %1009.8 hPa16.1 kmEast (90°)14.8 km/hPartly Cloudy
5:54 PM29.4 °C23.9 °C72 %1010.2 hPa16.1 kmEast (90°)14.8 km/hPartly Cloudy
6:54 PM28.9 °C23.9 °C74 %1010.8 hPa16.1 kmEast (80°)11.1 km/hClear
7:54 PM28.9 °C23.9 °C74 %1011.2 hPa16.1 kmEast (80°)13 km/hPartly Cloudy
8:54 PM28.9 °C23.9 °C74 %1011.9 hPa16.1 kmEast (100°)16.7 km/h0 mmPartly Cloudy
9:54 PM28.3 °C24.4 °C79 %1011.9 hPa16.1 kmESE (110°)13 km/hPartly Cloudy
10:54 PM28.3 °C23.9 °C77 %1011.9 hPa16.1 kmEast (90°)14.8 km/hPartly Cloudy
11:54 PM28.3 °C24.4 °C79 %1011.5 hPa16.1 kmEast (90°)11.1 km/hScattered Clouds
Hourly data recorded from PGUM, located 0 kilometers away from Agana, Guam







STORIES FROM OUR PARTNERS